Location: Csohesd
(46.2500°N, 22.6167°E)
Time: 04:30:01
(UTC+00:00)

Cosmos 2322 Rocket - Pass Details

Date: 21 October 2021
Orbit: 832 x 851 km, 71.0° (Epoch: 30 November)

Event Time Altitude Azimuth Distance (km) Brightness Sun altitude
Rises 18:50:16 0° 239° (WSW) 3,369 5.8 -34.4°
Reaches altitude 10° 18:53:02 10° 251° (WSW) 2,439 5.1 -34.9°
Maximum altitude 18:57:49 29° 310° (NW) 1,502 3.9 -35.6°
Enters shadow 19:00:23 21° 351° (N) 1,822 4.2 -36.0°
